Barrow, AK

6:16 AM AKDT on June 25, 2018 (GMT -0800)
Wiley Post-Will Rogers Memorial

Weather History for PABR - January, 2017

Change the Weather History Date:

Tuesday, January 17, 2017

  Actual Average Record
Temperature  
Mean Temperature -14 °F -14 °F  
Max Temperature -9 °F -8 °F 33 °F (1963)
Min Temperature -19 °F -20 °F -48 °F (1989)
Degree Days  
Heating Degree Days 79 79  
Month to date heating degree days 991 1323  
Since 1 July heating degree days 7950 9532  
Cooling Degree Days 0 0  
Month to date cooling degree days 0 0  
Year to date cooling degree days 0 0  
Moisture  
Dew Point -19 °F    
Average Humidity 74    
Maximum Humidity 78    
Minimum Humidity 70    
Precipitation  
Precipitation 0.00 in 0.00 in 0.17 in (1962)
Month to date precipitation 0.46 0.07  
Year to date precipitation 0.46 0.07  
Snow  
Snow 0.00 in 0.10 in 1.70 in (1962)
Month to date snowfall 4.2 1.5  
Since 1 July snowfall 21.5 25.3  
Snow Depth 6.00 in    
Sea Level Pressure  
Sea Level Pressure 29.65 in    
Wind  
Wind Speed 4 mph (NE)    
Max Wind Speed 7 mph    
Max Gust Speed -    
Visibility 6 miles    
Events      
T = Trace of Precipitation, MM = Missing Value Source: NWS Daily Summary

Daily Weather History Graph

Daily Weather History Graph

Search for Another Location

Airport or City:

Astronomy

Jan. 17, 2017 Rise Set
Actual Time 1:04 PM AKST 2:09 PM AKST
Civil Twilight 10:55 AM AKST 4:20 PM AKST
Nautical Twilight 9:15 AM AKST 5:59 PM AKST
Astronomical Twilight 7:55 AM AKST 7:20 PM AKST
Moon No Moon Rise 12:03 PM AKST (1/17)
Length of Visible Light 5h 24m
Length of Day
1h 04m
Waning Gibbous, 69% of the Moon is Illuminated
Jan 17
Waning Gibbous
Jan 19
Last Quarter
Jan 27
New
Feb 3
First Quarter
Feb 10
Full

Hourly Weather History & Observations

Time (AKST) Temp. Windchill Dew Point Humidity Pressure Visibility Wind Dir Wind Speed Gust Speed Precip Events Conditions
12:53 AM -16.1 °F -28.6 °F -22.0 °F 74% 29.63 in 10.0 mi ENE 4.6 mph - N/A   Scattered Clouds
1:53 AM -17.0 °F -27.2 °F -23.1 °F 74% 29.65 in 10.0 mi ESE 3.5 mph - N/A   Scattered Clouds
2:53 AM -18.9 °F -32.0 °F -24.0 °F 78% 29.65 in 10.0 mi East 4.6 mph - N/A   Scattered Clouds
3:53 AM -15.0 °F -27.4 °F -22.0 °F 71% 29.65 in 10.0 mi ENE 4.6 mph - N/A   Clear
4:53 AM -18.0 °F -33.0 °F -25.1 °F 70% 29.65 in 10.0 mi East 5.8 mph - N/A   Partly Cloudy
5:53 AM -18.0 °F -30.9 °F -24.0 °F 74% 29.64 in 10.0 mi East 4.6 mph - N/A   Partly Cloudy
6:53 AM -16.1 °F -28.6 °F -22.0 °F 74% 29.64 in 10.0 mi ENE 4.6 mph - N/A   Partly Cloudy
7:53 AM -18.9 °F -32.0 °F -24.0 °F 78% 29.65 in 10.0 mi ENE 4.6 mph - N/A   Clear
8:53 AM -15.0 °F -29.3 °F -20.9 °F 75% 29.65 in 5.0 mi ENE 5.8 mph - N/A   Clear
9:53 AM -13.0 °F -25.1 °F -18.9 °F 75% 29.66 in 4.0 mi NE 4.6 mph - N/A   Partly Cloudy
10:53 AM -13.0 °F -25.1 °F -18.9 °F 75% 29.66 in 7.0 mi NE 4.6 mph - N/A   Partly Cloudy
11:53 AM -13.0 °F -25.1 °F -18.9 °F 75% 29.66 in 7.0 mi ENE 4.6 mph - N/A   Partly Cloudy
12:53 PM -13.0 °F - -18.9 °F 75% 29.66 in 10.0 mi Calm Calm - N/A   Clear
1:28 PM -9.9 °F - -17.0 °F 71% 29.65 in 7.0 mi Calm Calm - N/A   Partly Cloudy
1:53 PM -11.9 °F - -18.0 °F 74% 29.66 in 6.0 mi Calm Calm - N/A   Partly Cloudy
2:38 PM -11.0 °F - -18.0 °F 71% 29.65 in 3.0 mi Calm Calm - N/A   Haze
2:42 PM -11.0 °F -20.4 °F -18.0 °F 71% 29.65 in 3.0 mi North 3.5 mph - N/A   Haze
2:53 PM -9.9 °F -21.5 °F -17.0 °F 71% 29.66 in 3.0 mi NNE 4.6 mph - N/A   Haze
3:36 PM -9.0 °F -18.2 °F -15.0 °F 75% 29.65 in 2.5 mi NE 3.5 mph - N/A   Haze
3:38 PM -9.0 °F -18.2 °F -15.0 °F 75% 29.65 in 3.0 mi NNE 3.5 mph - N/A   Haze
3:53 PM -9.0 °F -20.4 °F -15.0 °F 75% 29.66 in 3.0 mi NNE 4.6 mph - N/A   Haze
4:53 PM -14.1 °F - -20.0 °F 75% 29.66 in 3.0 mi Calm Calm - N/A   Haze
5:53 PM -9.9 °F -19.2 °F -16.1 °F 74% 29.65 in 4.0 mi North 3.5 mph - N/A   Haze
6:53 PM -9.0 °F -22.3 °F -15.0 °F 75% 29.65 in 6.0 mi NNW 5.8 mph - N/A   Haze
7:53 PM -9.0 °F -22.3 °F -15.0 °F 75% 29.65 in 7.0 mi NNW 5.8 mph - N/A   Overcast
8:53 PM -9.9 °F -24.9 °F -16.1 °F 74% 29.65 in 5.0 mi North 6.9 mph - N/A   Haze
9:53 PM -9.9 °F -21.5 °F -17.0 °F 71% 29.65 in 5.0 mi North 4.6 mph - N/A   Haze
10:00 PM -9.9 °F -21.5 °F -16.1 °F 74% 29.65 in 3.0 mi North 4.6 mph - N/A   Haze
10:29 PM -11.0 °F -20.4 °F -17.0 °F 75% 29.65 in 6.0 mi ENE 3.5 mph - N/A   Haze
10:53 PM -11.9 °F - -18.0 °F 74% 29.66 in 8.0 mi Calm Calm - N/A   Clear
11:06 PM -11.0 °F - -18.0 °F 71% 29.65 in 5.0 mi Calm Calm - N/A   Haze
11:53 PM -18.0 °F - -24.0 °F 74% 29.66 in 7.0 mi Calm Calm - N/A   Overcast